When you browse on this site, cookies collect data to enhance your experience and personalize the content and advertising you see.
Visit our Privacy Policy to learn more. By continuing to use the site, you agree to this use of cookies and data.
  • In Hungary
  • List of Countries
  • For 7 days
  • Water Temperature
  • Satellite Maps
  • Weather Map
  • News
  • Weather Widgets
  • user-avatar
    Login

    Hourly Weather Sharan

    Today, 11 December, Tuesday

    Time Temperature Precipitation Wind Pressure Humidity
    00:00 +2°C° 0 mm 1 mps 583 mmHg 71%
    01:00 +1°C° 0 mm 1 mps 583 mmHg 73%
    02:00 +1°C° 0 mm 1 mps 583 mmHg 74%
    03:00 +1°C° 0 mm 1 mps 582 mmHg 76%
    04:00 0°C° 0 mm 1 mps 582 mmHg 77%
    05:00 0°C° 0 mm 1 mps 582 mmHg 74%
    06:00 0°C° 0 mm 1 mps 582 mmHg 73%
    07:00 0°C° 0 mm 1 mps 583 mmHg 72%
    08:00 0°C° 0 mm 1 mps 583 mmHg 71%
    09:00 +1°C° 0 mm 1 mps 583 mmHg 66%
    10:00 +2°C° 0 mm 1 mps 584 mmHg 61%
    11:00 +3°C° 0 mm 1 mps 584 mmHg 56%
    12:00 +4°C° 0 mm 1 mps 584 mmHg 53%
    13:00 +4°C° 0 mm 1 mps 584 mmHg 50%
    14:00 +5°C° 0 mm 1 mps 584 mmHg 47%
    15:00 +5°C° 0 mm 1 mps 584 mmHg 48%
    16:00 +4°C° 0 mm 1 mps 584 mmHg 48%
    17:00 +4°C° 0 mm 1 mps 584 mmHg 49%
    18:00 +4°C° 0 mm 1 mps 584 mmHg 52%
    19:00 +3°C° 0 mm 1 mps 584 mmHg 56%
    20:00 +2°C° 0 mm 1 mps 584 mmHg 59%
    21:00 +2°C° 0 mm 1 mps 584 mmHg 61%
    22:00 +1°C° 0 mm 1 mps 584 mmHg 62%
    23:00 +1°C° 0 mm 1 mps 584 mmHg 63%

    Tomorrow, 12 December, Wednesday

    Time Temperature Precipitation Wind Pressure Humidity
    00:00 +1°C° 0 mm 1 mps 584 mmHg 63%
    01:00 0°C° 0 mm 1 mps 584 mmHg 63%
    02:00 0°C° 0 mm 1 mps 583 mmHg 62%
    03:00 0°C° 0 mm 1 mps 583 mmHg 62%
    04:00 -1°C° 0 mm 1 mps 583 mmHg 61%
    05:00 -1°C° 0 mm 1 mps 583 mmHg 60%
    06:00 -1°C° 0 mm 1 mps 584 mmHg 58%
    07:00 -1°C° 0 mm 1 mps 584 mmHg 56%
    08:00 -1°C° 0 mm 1 mps 584 mmHg 54%
    09:00 +1°C° 0 mm 1 mps 585 mmHg 50%
    10:00 +2°C° 0 mm 1 mps 586 mmHg 45%
    11:00 +3°C° 0 mm 1 mps 586 mmHg 41%
    12:00 +3°C° 0 mm 1 mps 586 mmHg 40%
    13:00 +4°C° 0 mm 1 mps 586 mmHg 38%
    14:00 +5°C° 0 mm 1 mps 585 mmHg 37%
    15:00 +4°C° 0 mm 1 mps 585 mmHg 38%
    16:00 +4°C° 0 mm 1 mps 585 mmHg 39%
    17:00 +4°C° 0 mm 1 mps 585 mmHg 41%
    18:00 +3°C° 0 mm 1 mps 585 mmHg 44%
    19:00 +2°C° 0 mm 1 mps 585 mmHg 47%
    20:00 0°C° 0 mm 0 mps 586 mmHg 51%
    21:00 0°C° 0 mm 0 mps 586 mmHg 52%
    22:00 -1°C° 0 mm 0 mps 586 mmHg 53%
    23:00 -1°C° 0 mm 0 mps 585 mmHg 55%

    Day after tomorrow, 13 December, Thursday

    Time Temperature Precipitation Wind Pressure Humidity
    00:00 -1°C° 0 mm 0 mps 585 mmHg 55%
    01:00 -1°C° 0 mm 0 mps 585 mmHg 56%
    02:00 -2°C° 0 mm 0 mps 585 mmHg 57%
    03:00 -2°C° 0 mm 0 mps 585 mmHg 58%
    04:00 -2°C° 0 mm 0 mps 585 mmHg 59%
    05:00 -2°C° 0 mm 0 mps 585 mmHg 60%
    06:00 -2°C° 0 mm 0 mps 585 mmHg 60%
    07:00 -2°C° 0 mm 0 mps 586 mmHg 61%
    08:00 -2°C° 0 mm 0 mps 586 mmHg 61%
    09:00 -1°C° 0 mm 0 mps 587 mmHg 55%
    10:00 +2°C° 0 mm 1 mps 587 mmHg 49%
    11:00 +3°C° 0 mm 1 mps 588 mmHg 43%
    12:00 +4°C° 0 mm 1 mps 587 mmHg 40%
    13:00 +5°C° 0 mm 1 mps 587 mmHg 36%
    14:00 +5°C° 0 mm 1 mps 587 mmHg 32%
    15:00 +5°C° 0 mm 1 mps 587 mmHg 34%
    16:00 +4°C° 0 mm 1 mps 586 mmHg 37%
    17:00 +4°C° 0 mm 1 mps 586 mmHg 39%
    18:00 +3°C° 0 mm 1 mps 586 mmHg 42%
    19:00 +2°C° 0 mm 1 mps 586 mmHg 45%
    20:00 +1°C° 0 mm 1 mps 586 mmHg 48%
    21:00 +1°C° 0 mm 1 mps 586 mmHg 49%
    22:00 +1°C° 0 mm 1 mps 586 mmHg 49%
    23:00 0°C° 0 mm 1 mps 586 mmHg 50%

    14 December, Friday

    Time Temperature Precipitation Wind Pressure Humidity
    00:00 0°C° 0 mm 1 mps 586 mmHg 51%
    01:00 0°C° 0 mm 1 mps 585 mmHg 52%
    02:00 0°C° 0 mm 1 mps 585 mmHg 53%
    03:00 -1°C° 0 mm 1 mps 585 mmHg 53%
    04:00 -1°C° 0 mm 1 mps 585 mmHg 54%
    05:00 -2°C° 0 mm 0 mps 584 mmHg 54%
    06:00 -2°C° 0 mm 0 mps 585 mmHg 53%
    07:00 -2°C° 0 mm 0 mps 585 mmHg 52%
    08:00 -2°C° 0 mm 0 mps 586 mmHg 51%
    09:00 0°C° 0 mm 0 mps 587 mmHg 43%
    10:00 +2°C° 0 mm 0 mps 588 mmHg 36%
    11:00 +4°C° 0 mm 0 mps 589 mmHg 29%
    12:00 +6°C° 0 mm 1 mps 588 mmHg 27%
    13:00 +7°C° 0 mm 1 mps 588 mmHg 25%
    14:00 +8°C° 0 mm 1 mps 588 mmHg 23%
    15:00 +7°C° 0 mm 1 mps 588 mmHg 26%
    16:00 +6°C° 0 mm 1 mps 587 mmHg 29%
    17:00 +5°C° 0 mm 1 mps 587 mmHg 32%
    18:00 +4°C° 0 mm 1 mps 587 mmHg 34%
    19:00 +2°C° 0 mm 0 mps 587 mmHg 36%
    20:00 +1°C° 0 mm 0 mps 587 mmHg 38%
    21:00 +1°C° 0 mm 0 mps 587 mmHg 38%
    22:00 0°C° 0 mm 0 mps 587 mmHg 38%
    23:00 0°C° 0 mm 0 mps 587 mmHg 37%

    15 December, Saturday

    Time Temperature Precipitation Wind Pressure Humidity
    00:00 0°C° 0 mm 0 mps 586 mmHg 37%
    01:00 -1°C° 0 mm 0 mps 586 mmHg 36%
    02:00 -1°C° 0 mm 0 mps 586 mmHg 36%
    03:00 -1°C° 0 mm 0 mps 585 mmHg 35%
    04:00 0°C° 0 mm 1 mps 585 mmHg 34%
    05:00 0°C° 0 mm 1 mps 585 mmHg 33%
    06:00 0°C° 0 mm 1 mps 585 mmHg 31%
    07:00 0°C° 0 mm 1 mps 586 mmHg 29%
    08:00 +1°C° 0 mm 1 mps 586 mmHg 27%
    09:00 +3°C° 0 mm 1 mps 587 mmHg 23%
    10:00 +4°C° 0 mm 0 mps 588 mmHg 19%
    11:00 +6°C° 0 mm 0 mps 589 mmHg 15%
    12:00 +7°C° 0 mm 0 mps 589 mmHg 15%
    13:00 +7°C° 0 mm 0 mps 589 mmHg 14%
    14:00 +9°C° 0 mm 1 mps 589 mmHg 14%
    15:00 +8°C° 0 mm 1 mps 588 mmHg 17%
    16:00 +5°C° 0 mm 0 mps 588 mmHg 20%
    17:00 +4°C° 0 mm 0 mps 587 mmHg 23%
    18:00 +3°C° 0 mm 0 mps 587 mmHg 24%
    19:00 +2°C° 0 mm 0 mps 587 mmHg 26%
    20:00 +1°C° 0 mm 0 mps 587 mmHg 27%
    21:00 +1°C° 0 mm 0 mps 587 mmHg 27%
    22:00 +1°C° 0 mm 0 mps 587 mmHg 27%
    23:00 +2°C° 0 mm 1 mps 587 mmHg 27%

    16 December, Sunday

    Time Temperature Precipitation Wind Pressure Humidity
    00:00 +1°C° 0 mm 1 mps 587 mmHg 26%
    01:00 +1°C° 0 mm 1 mps 587 mmHg 26%
    02:00 +1°C° 0 mm 1 mps 586 mmHg 25%
    03:00 +1°C° 0 mm 1 mps 586 mmHg 25%
    04:00 +1°C° 0 mm 1 mps 586 mmHg 24%
    05:00 +1°C° 0 mm 1 mps 586 mmHg 23%
    06:00 +1°C° 0 mm 1 mps 586 mmHg 23%
    07:00 +1°C° 0 mm 1 mps 587 mmHg 22%
    08:00 +1°C° 0 mm 1 mps 587 mmHg 22%
    09:00 +3°C° 0 mm 1 mps 588 mmHg 19%
    10:00 +5°C° 0 mm 1 mps 589 mmHg 16%
    11:00 +7°C° 0 mm 1 mps 590 mmHg 13%
    12:00 +8°C° 0 mm 1 mps 590 mmHg 13%
    13:00 +8°C° 0 mm 1 mps 590 mmHg 12%
    14:00 +9°C° 0 mm 1 mps 589 mmHg 12%
    15:00 +8°C° 0 mm 1 mps 589 mmHg 14%
    16:00 +7°C° 0 mm 1 mps 588 mmHg 16%
    17:00 +6°C° 0 mm 1 mps 588 mmHg 19%
    18:00 +5°C° 0 mm 1 mps 587 mmHg 19%
    19:00 +4°C° 0 mm 1 mps 587 mmHg 20%
    20:00 +3°C° 0 mm 1 mps 587 mmHg 21%
    21:00 +2°C° 0 mm 1 mps 587 mmHg 21%
    22:00 +2°C° 0 mm 1 mps 587 mmHg 21%
    23:00 +2°C° 0 mm 1 mps 587 mmHg 21%
    Show more